Regional Weather Roundup
Issued by NWS

Home | Current Version | Previous Version | Graphics & Text | Print | Product List | Glossary Off
Versions: 1 2 3 4 5 6 7 8 9 10 11 12 13 14 15 16 17 18 19 20 21 22 23 24 25 26 27 28 29 30 31 32 33 34 35 36 37 38 39 40 41 42 43 44 45 46 47 48 49 50

000
ASUS43 KFSD 280610
RWRSD

WEATHER ROUNDUP FOR SOUTH DAKOTA
NATIONAL WEATHER SERVICE SIOUX FALLS SD
100 AM CDT SUN AUG 28 2016

NOTE: "FAIR" INDICATES FEW OR NO CLOUDS BELOW 12,000 FEET WITH NO
SIGNIFICANT WEATHER AND/OR OBSTRUCTIONS TO VISIBILITY.


SDZ001>005-009-010-012>017-280700-
NORTHWEST AND NORTH CENTRAL SOUTH DAKOTA

CITY           SKY/WX    TMP DP  RH WIND       PRES   REMARKS
BUFFALO          N/A     67  54  63 E10       29.84F
FAITH            N/A     66  57  72 SE12      29.90S
MOBRIDGE       CLEAR     68  53  58 SE10      29.90S
$$

SDZ012>016-024>037-041>051-057-063-072>074-280700-
SOUTHWEST AND SOUTH CENTRAL SOUTH DAKOTA

CITY           SKY/WX    TMP DP  RH WIND       PRES   REMARKS
RAPID CTY ARPT CLEAR     62  52  69 SE6       29.93S
PIERRE         PTCLDY    69  61  75 SE12      29.89S
CUSTER         CLEAR     53  42  66 NW5       30.08S
ELLSWORTH AFB  CLEAR    N/A N/A N/A S9        29.92S
PHILIP         MOCLDY    66  58  75 E3        29.90S
PINE RIDGE     CLEAR     70  58  65 S16G24    29.97S
WINNER         FAIR      74  64  71 S16       29.96S
$$

SDZ004>011-016>023-039-040-280700-
NORTHEAST SOUTH DAKOTA

CITY           SKY/WX    TMP DP  RH WIND       PRES   REMARKS
ABERDEEN       CLEAR     65  62  90 S10       29.95F
WATERTOWN      MOCLDY    66  62  87 SE10      30.01F
BROOKINGS      FAIR      64  62  93 SE12      30.03F
SISSETON         N/A     62  60  93 S6        30.00R
$$

SDZ017-020-022-023-036>040-048>070-280700-
SOUTHEAST SOUTH DAKOTA

CITY           SKY/WX    TMP DP  RH WIND       PRES   REMARKS
SIOUX FALLS    FAIR      69  65  86 SE10      30.05R
HURON          PTCLDY    70  64  81 SE13      29.96S
CHAMBERLAIN    CLEAR     70  65  82 SE8       29.96R
MITCHELL       CLEAR     69  65  86 SE13      29.99S
YANKTON        FAIR      68  63  83 SE7       30.02S
$$

ABBREVIATIONS USED IN REMARKS
   TC - TEMPERATURE IN CELSIUS
  WCI - WIND CHILL INDEX
   HX - HEAT INDEX
  VSB - VISIBILITY





USA.gov is the U.S. government's official web portal to all federal, state and local government web resources and services.